Date String (YYYY-MM-DD hh:mm:ss) UTC,Instrument flags,absolute air pressure of the measurement (hPa),sample flow rate (lpm),inlet stack bypass flow (lpm),air temperature of the measurement (°C),ambient temperature measured by the external sensor (°C),aerosol sample conditioner tube jacket temperature (°C),OPC LED temperature (°C),internal box temperature (°C),relative humidity of the measurement (%),span deviation,mass concentration of particles derived from Lorenz-Mie calculation of OPC scattering (μg/m³),mass concentration of particles derived from Lorenz-Mie calculation of OPC scattering (μg/m³),mass concentration of particles derived from Lorenz-Mie calculation of OPC scattering (μg/m³)
DateTimeUTC,F1_M11,P_M11,Q1_M11,Q2_M11,T1_M11,T2_M11,T3_M11,T4_M11,T5_M11,U1_M11,ZSPAN_M11,X2_M11,X0_M11,X1_M11
2024-02-18 15:00:00,SystemResetWarning,0826.4,5.00,000.00,018.3,017.8,000.0,026.8,020.0,11.6,0000.0,0000.89,0003.04,0000.74
2024-02-18 15:01:00,SystemResetWarning,0826.3,5.00,000.00,018.3,017.8,000.0,026.8,020.0,11.7,0000.0,0000.89,0004.08,0000.73
2024-02-18 15:02:00,SystemResetWarning,0826.2,5.00,000.00,018.3,017.8,000.0,026.8,020.0,11.1,0000.0,0000.86,0003.92,0000.72
2024-02-18 15:03:00,SystemResetWarning,0826.3,4.99,000.00,018.3,017.8,000.0,026.8,020.0,10.0,0000.0,0000.84,0003.87,0000.70
2024-02-18 15:04:00,SystemResetWarning,0826.3,4.99,000.00,018.3,017.8,000.0,026.8,020.0,09.7,0000.0,0000.82,0003.83,0000.70
2024-02-18 15:05:00,SystemResetWarning,0826.3,4.99,000.00,018.3,017.8,000.0,026.8,020.0,10.4,0000.0,0000.85,0002.79,0000.70
2024-02-18 15:06:00,SystemResetWarning,0826.2,5.00,000.00,018.3,017.8,000.0,026.8,020.0,11.2,0000.0,0000.88,0002.71,0000.71
2024-02-18 15:07:00,SystemResetWarning,0826.3,5.00,000.00,018.3,017.8,000.0,026.8,020.0,11.1,0000.0,0000.88,0002.71,0000.71
2024-02-18 15:08:00,SystemResetWarning,0826.3,5.00,000.00,018.3,017.8,000.0,026.8,020.0,11.0,0000.0,0000.87,0002.71,0000.71
2024-02-18 15:09:00,SystemResetWarning,0826.3,5.00,000.00,018.3,017.8,000.0,026.7,020.0,10.7,0000.0,0000.89,0002.75,0000.71
2024-02-18 15:10:00,SystemResetWarning,0826.3,5.01,000.00,018.3,017.8,000.0,026.8,020.0,09.6,0000.0,0000.89,0002.75,0000.72
2024-02-18 15:11:00,SystemResetWarning,0826.3,4.99,000.00,018.3,017.8,000.0,026.7,020.0,09.7,0000.0,0000.86,0002.59,0000.72
2024-02-18 15:12:00,SystemResetWarning,0826.3,4.98,000.00,018.3,017.8,000.0,026.7,020.0,10.1,0000.0,0000.85,0001.18,0000.71
2024-02-18 15:13:00,SystemResetWarning,0826.3,5.00,000.00,018.3,017.8,000.0,026.7,020.0,09.8,0000.0,0000.87,0001.63,0000.72
2024-02-18 15:14:00,SystemResetWarning,0826.3,5.01,000.00,018.3,017.8,000.0,026.7,020.0,10.3,0000.0,0000.86,0002.44,0000.71
2024-02-18 15:15:00,SystemResetWarning,0826.3,5.00,000.00,018.3,017.8,000.0,026.7,020.0,11.0,0000.0,0000.88,0002.49,0000.70
2024-02-18 15:16:00,SystemResetWarning,0826.3,5.00,000.00,018.3,017.8,000.0,026.7,020.0,10.9,0000.0,0000.87,0002.48,0000.71
2024-02-18 15:17:00,SystemResetWarning,0826.3,5.00,000.00,018.3,017.8,000.0,026.7,020.0,10.8,0000.0,0000.85,0002.42,0000.72
2024-02-18 15:18:00,SystemResetWarning,0826.3,4.99,000.00,018.3,017.8,000.0,026.7,020.0,10.6,0000.0,0000.85,0002.36,0000.73
2024-02-18 15:19:00,SystemResetWarning,0826.3,4.99,000.00,018.3,017.8,000.0,026.7,020.0,11.5,0000.0,0000.86,0002.36,0000.74
2024-02-18 15:20:00,SystemResetWarning,0826.4,4.99,000.00,018.3,017.8,000.0,026.7,020.0,13.8,0000.0,0000.87,0002.36,0000.75
2024-02-18 15:21:00,SystemResetWarning,0826.4,5.00,000.00,018.3,017.8,000.0,026.7,020.0,13.3,0000.0,0000.89,0002.40,0000.75
2024-02-18 15:22:00,SystemResetWarning,0826.3,5.00,000.00,018.3,017.8,000.0,026.7,020.0,12.5,0000.0,0000.89,0002.41,0000.76
2024-02-18 15:23:00,SystemResetWarning,0826.3,5.01,000.00,018.2,017.8,000.0,026.7,020.0,13.2,0000.0,0000.90,0002.42,0000.77
2024-02-18 15:24:00,SystemResetWarning,0826.3,4.99,000.00,018.3,017.8,000.0,026.7,020.0,13.5,0000.0,0000.91,0002.44,0000.77
2024-02-18 15:25:00,SystemResetWarning,0826.4,5.00,000.00,018.2,017.8,000.0,026.7,020.0,13.5,0000.0,0000.90,0001.19,0000.77
2024-02-18 15:26:00,SystemResetWarning,0826.4,5.00,000.00,018.3,017.8,000.0,026.7,020.0,13.2,0000.0,0000.89,0001.13,0000.77
2024-02-18 15:27:00,SystemResetWarning,0826.4,5.00,000.00,018.3,017.8,000.0,026.7,020.0,13.0,0000.0,0000.89,0001.14,0000.78
2024-02-18 15:28:00,SystemResetWarning,0826.4,5.00,000.00,018.3,017.8,000.0,026.7,020.0,13.2,0000.0,0000.93,0002.26,0000.80
2024-02-18 15:29:00,SystemResetWarning,0826.4,5.00,000.00,018.3,017.8,000.0,026.7,020.0,13.7,0000.0,0000.96,0003.62,0000.83
2024-02-18 15:30:00,SystemResetWarning,0826.4,5.00,000.00,018.3,017.8,000.0,026.7,020.0,13.2,0000.0,0000.98,0003.63,0000.87
2024-02-18 15:31:00,SystemResetWarning,0826.4,5.01,000.00,018.3,017.8,000.0,026.7,020.0,12.6,0000.0,0001.03,0003.69,0000.91
2024-02-18 15:32:00,SystemResetWarning,0826.4,5.00,000.00,018.3,017.8,000.0,026.7,020.0,12.0,0000.0,0001.04,0003.66,0000.94
2024-02-18 15:33:00,SystemResetWarning,0826.4,5.00,000.00,018.3,017.8,000.0,026.7,020.0,11.9,0000.0,0001.10,0003.73,0000.99
2024-02-18 15:34:00,SystemResetWarning,0826.4,5.00,000.00,018.3,017.8,000.0,026.8,020.0,12.0,0000.0,0001.16,0003.80,0001.04
2024-02-18 15:35:00,SystemResetWarning,0826.4,5.00,000.00,018.3,017.8,000.0,026.7,020.0,12.1,0000.0,0001.22,0004.06,0001.09
2024-02-18 15:36:00,SystemResetWarning,0826.3,5.00,000.00,018.3,017.8,000.0,026.7,020.0,12.1,0000.0,0001.28,0004.13,0001.16
2024-02-18 15:37:00,SystemResetWarning,0826.3,5.00,000.00,018.3,017.8,000.0,026.7,020.0,12.4,0000.0,0001.33,0004.19,0001.21
2024-02-18 15:38:00,SystemResetWarning,0826.2,5.00,000.00,018.3,017.8,000.0,026.7,020.0,12.5,0000.0,0001.36,0004.22,0001.24
2024-02-18 15:39:00,SystemResetWarning,0826.2,5.00,000.00,018.3,017.8,000.0,026.7,020.0,12.6,0000.0,0001.37,0003.01,0001.26
2024-02-18 15:40:00,SystemResetWarning,0826.2,5.00,000.00,018.3,017.8,000.0,026.7,020.0,12.8,0000.0,0001.39,0001.87,0001.26
2024-02-18 15:41:00,SystemResetWarning,0826.2,5.00,000.00,018.3,017.8,000.0,026.7,020.0,12.8,0000.0,0001.41,0001.96,0001.26
2024-02-18 15:42:00,SystemResetWarning,0826.2,5.00,000.00,018.3,017.8,000.0,026.7,020.0,12.9,0000.0,0001.42,0001.96,0001.27
2024-02-18 15:43:00,SystemResetWarning,0826.2,5.00,000.00,018.3,017.8,000.0,026.7,020.0,12.6,0000.0,0001.44,0003.80,0001.29
2024-02-18 15:44:00,SystemResetWarning,0826.2,5.00,000.00,018.3,017.8,000.0,026.7,020.0,11.8,0000.0,0001.45,0005.24,0001.30
2024-02-18 15:45:00,SystemResetWarning,0826.2,5.00,000.00,018.3,017.8,000.0,026.7,020.0,12.1,0000.0,0001.46,0005.26,0001.31
2024-02-18 15:46:00,SystemResetWarning,0826.1,5.00,000.00,018.3,017.8,000.0,026.7,020.0,12.1,0000.0,0001.45,0005.06,0001.31
2024-02-18 15:47:00,SystemResetWarning,0826.0,5.00,000.00,018.3,017.8,000.0,026.7,020.0,12.2,0000.0,0001.44,0004.98,0001.30
2024-02-18 15:48:00,SystemResetWarning,0826.0,5.00,000.00,018.3,017.9,000.0,026.7,020.1,12.5,0000.0,0001.49,0005.12,0001.32
2024-02-18 15:49:00,SystemResetWarning,0826.0,5.00,000.00,018.3,017.9,000.0,026.7,020.0,12.7,0000.0,0001.54,0005.23,0001.35
2024-02-18 15:50:00,SystemResetWarning,0826.1,5.00,000.00,018.3,017.9,000.0,026.7,020.1,12.5,0000.0,0001.57,0005.27,0001.37
2024-02-18 15:51:00,SystemResetWarning,0826.1,5.00,000.00,018.3,017.9,000.0,026.7,020.1,12.0,0000.0,0001.67,0005.52,0001.42
2024-02-18 15:52:00,SystemResetWarning,0826.0,5.00,000.00,018.3,017.9,000.0,026.7,020.1,12.0,0000.0,0001.72,0005.58,0001.45
2024-02-18 15:53:00,SystemResetWarning,0826.0,5.00,000.00,018.3,017.9,000.0,026.7,020.1,12.1,0000.0,0001.75,0005.61,0001.48
2024-02-18 15:54:00,SystemResetWarning,0826.0,5.00,000.00,018.3,017.9,000.0,026.7,020.1,11.9,0000.0,0001.81,0004.36,0001.53
2024-02-18 15:55:00,SystemResetWarning,0826.0,5.00,000.00,018.3,017.9,000.0,026.7,020.1,11.6,0000.0,0001.91,0002.70,0001.61
2024-02-18 15:56:00,SystemResetWarning,0826.0,5.00,000.00,018.3,017.9,000.0,026.7,020.1,12.1,0000.0,0002.00,0002.74,0001.69
2024-02-18 15:57:00,SystemResetWarning,0825.9,5.00,000.00,018.3,017.9,000.0,026.8,020.1,12.0,0000.0,0002.08,0003.17,0001.77
2024-02-18 15:58:00,SystemResetWarning,0825.9,5.00,000.00,018.3,017.9,000.0,026.8,020.1,12.1,0000.0,0002.16,0003.91,0001.85
2024-02-18 15:59:00,SystemResetWarning,0825.8,5.00,000.00,018.3,017.9,000.0,026.8,020.1,11.9,0000.0,0002.21,0003.92,0001.91
